Location: Kalberh�ni
(46.4610°N, 7.2453°E)
Time: 07:51:32
(UTC+00:00)

deb Kosmos-2227 - Pass Details

Date: 10 August 2022
Orbit: 774 x 865 km, 70.9° (Epoch: 26 September)

Event Time Altitude Azimuth Distance (km) Brightness Sun altitude
Rises 23:24:43 0° 337° (NNW) 3,327 ? -28.1°
Reaches altitude 10° 23:27:14 10° 344° (NNW) 2,407 ? -28.2°
Maximum altitude 23:32:31 44° 56° (NE) 1,126 ? -28.2°
Enters shadow 23:33:34 40° 86° (E) 1,206 ? -28.2°
